BG9VZ-13 Weather Reports


time (UTC)temp
C
wind
direction
speed
KPH
gust
KPH
rain 1hr
cm
rain 24hr
cm
rain mn
cm
humidity
%
barometer
mb
20260505080924 18 0 0.0 0.0 0.00 0.00 0.00 29 758.5
20260505073925 19 0 0.0 0.0 0.00 0.00 0.00 26 758.7
20260505070926 19 0 0.0 0.0 0.00 0.00 0.00 29 758.9
20260505063925 18 0 0.0 0.0 0.00 0.00 0.00 36 759.6
20260505060926 18 0 0.0 0.0 0.00 0.00 0.00 39 760.1
20260505053927 18 0 0.0 0.0 0.00 0.00 0.00 39 760.5
20260505050928 18 0 0.0 0.0 0.00 0.00 0.00 40 761.4
20260505040930 18 0 0.0 0.0 0.00 0.00 0.00 40 762.8
20260505033931 17 0 0.0 0.0 0.00 0.00 0.00 41 763.3
20260505030932 17 0 0.0 0.0 0.00 0.00 0.00 41 763.7
20260505023933 17 0 0.0 0.0 0.00 0.00 0.00 41 764.4
20260505020935 17 0 0.0 0.0 0.00 0.00 0.00 41 764.7
20260505013936 17 0 0.0 0.0 0.00 0.00 0.00 42 764.9
20260505010938 17 0 0.0 0.0 0.00 0.00 0.00 42 765.3
20260505003939 17 0 0.0 0.0 0.00 0.00 0.00 42 765.3
20260505000940 17 0 0.0 0.0 0.00 0.00 0.00 42 765.6
20260504233941 17 0 0.0 0.0 0.00 0.00 0.00 42 765.9
20260504230942 17 0 0.0 0.0 0.00 0.00 0.00 42 765.8
20260504223943 17 0 0.0 0.0 0.00 0.00 0.00 42 765.5
20260504220945 17 0 0.0 0.0 0.00 0.00 0.00 42 765.1
20260504213946 17 0 0.0 0.0 0.00 0.00 0.00 42 765.0
20260504210947 17 0 0.0 0.0 0.00 0.00 0.00 42 765.1
20260504203948 17 0 0.0 0.0 0.00 0.00 0.00 42 764.9
20260504200949 17 0 0.0 0.0 0.00 0.00 0.00 41 765.0
20260504193951 17 0 0.0 0.0 0.00 0.00 0.00 41 765.2
20260504190952 17 0 0.0 0.0 0.00 0.00 0.00 41 765.3
20260504183953 17 0 0.0 0.0 0.00 0.00 0.00 41 765.1
20260504180954 17 0 0.0 0.0 0.00 0.00 0.00 41 765.4
20260504173955 17 0 0.0 0.0 0.00 0.00 0.00 41 765.4
20260504170957 17 0 0.0 0.0 0.00 0.00 0.00 41 765.7
20260504151001 17 0 0.0 0.0 0.00 0.00 0.00 40 765.5
20260504141004 18 0 0.0 0.0 0.00 0.00 0.00 40 765.7